Regional Weather Roundup
Issued by NWS Newport/Morehead, NC

Current Version | Previous Version | Graphics & Text | Print | Product List | Glossary On
Versions: 1 2 3 4 5 6 7 8 9 10 11 12 13 14 15 16 17 18 19 20 21 22 23 24 25 26 27 28 29 30 31 32 33 34 35 36 37 38 39 40 41 42 43 44 45 46 47 48 49 50
000 ASUS42 KMHX 251713 RWRMHX WEATHER ROUNDUP FOR EASTERN NORTH CAROLINA NATIONAL WEATHER SERVICE NEWPORT/MOREHEAD CITY NC 100 PM EDT SUN JUN 25 2017 NOTE: "FAIR" INDICATES FEW OR NO CLOUDS BELOW 12,000 FEET WITH NO SIGNIFICANT WEATHER AND/OR OBSTRUCTIONS TO VISIBILITY NCZ015>017-031-032-045>047-102-103-251800- NORTH COAST CITY SKY/WX TMP DP RH WIND PRES REMARKS EDENTON CLOUDY 84 73 70 CALM 30.04S ELIZABETH CITY CLOUDY 86 75 69 W8 30.02F KITTY HAWK CLOUDY 80 72 75 W5 30.01F MANTEO CLOUDY 81 73 76 N7 30.03F $$ NCZ045>047-081-094-103-104-251800- CENTRAL COAST CITY SKY/WX TMP DP RH WIND PRES REMARKS FRISCO PTSUNNY 83 75 77 W8 30.03F $$ NCZ095-097-098-100-101-251800- SOUTHERN COAST CITY SKY/WX TMP DP RH WIND PRES REMARKS BEAUFORT CLOUDY 82 77 84 SW9 30.04F CEDAR ISLAND NOT AVBL JACKSONVILLE NOT AVBL PINEY ISLAND CLOUDY N/A N/A N/A W9 30.03F WILMINGTON CLOUDY 84 74 71 SW6 30.05S $$ NCZ011>013-027>030-043-044-078>080-089-090>093-098-251800- COASTAL PLAIN CITY SKY/WX TMP DP RH WIND PRES REMARKS AHOSKIE N/A 81 68 63 CALM 30.04F CLINTON PTSUNNY 82 76 82 N5 30.07S ELIZABETHTOWN NOT AVBL GOLDSBORO NOT AVBL GREENVILLE CLOUDY 84 72 65 W5 30.07S HAVELOCK CLOUDY 83 75 77 W9 30.05S KENANSVILLE CLOUDY 82 75 78 NW7 30.07S KINSTON CLOUDY 82 72 69 NW3 30.06F NEW BERN CLOUDY 83 74 74 W8 30.05F RICHLANDS NOT AVBL ROCKY MOUNT PTSUNNY 83 68 60 NW8 30.07S WASHINGTON CLOUDY N/A N/A N/A SW5 30.05F WHITEVILLE CLOUDY 83 74 73 NW3 30.06F $$ AMZ130-135-150-152-154-156-158-170-250-252-270-ANZ085-086-088-633-658-670-251800- MARINE OBSERVATIONS STATION/POSITION TIME TEMP WIND PRES WAVE SWELL AIR SEA DIR/SP/G HT/PER HT/PER (UTC) (F) (DEG/KT/KT) (MB) (FT/S) (FT/S) CHESAPEAKE LIGHT NOT AVBL 64 E VA BEACH 1650 74 73 270/ 4/ 6 1017.0 3/ 7 3/ 7 DUCK 1636 79 60 250/ 5/ 7 1016.3 2 E DUCK NOT AVBL OREGON INLET 1636 79 77 210/ 4/ 5 1016.6 13E OREGON INLT 1648 77 N/A 3/ 6 3/ 6 HATTERAS CG 1636 80 78 270/ 6/ 8 1016.9 DIAMOND BUOY 1650 79 80 250/ 8/ 10 1017.0 4/ 6 3/ 6 CAPE LOOKOUT 1700 80 250/ 8/ 12 1016.8 BEAUFORT LAB 1636 81 78 240/ 5/ 8 1016.7 30 SE NEW RVR IN 1608 79 80 260/ 8/ 10 1018.0 30 SE NEW RVR IN 1643 80 N/A 5/ 6 27 SE WRIGHTSVLE 1608 79 80 220/ 10/ 14 1017.4 5 SE WRIGHTSVLE 1608 80 80 200/ 6/ 8 1017.6 225 S CAPE HAT 1650 81 80 210/ 12/ 16 1020.9 4/ 6 2/ 9 41 SE CHARLESTON 1700 80 81 220/ 12/ 14 1018.5 $$

USA.gov is the U.S. government's official web portal to all federal, state and local government web resources and services.